Theta_e
334 340 344 347 350 354 355 357 360 363 367 357 355 361 360 363 364 361 359 358 358 353 350 352 350 349 352 352 350 351 350 351 352 351 346 346 345 345 346 345 348 348 348 349 348 348 347 349 349 349 351 351 351 352 352 351 351 351 352 353 352 351 351 350 351 351 350 351 351 353 354 353 353 352 350 351 351 351 353 354 353 353 353 352 352 352 352 352 353 354 353 351 352 351 350 350 350
337 346 350 351 351 357 362 359 364 364 360 353 354 362 361 365 365 360 361 359 357 350 348 349 349 349 349 349 348 350 350 348 348 349 346 345 347 348 346 347 347 347 348 348 348 348 348 349 347 346 348 350 351 351 351 351 351 351 352 352 351 351 351 350 351 350 349 351 352 353 354 352 350 350 351 352 351 350 352 354 354 353 353 352 351 351 351 351 353 353 352 352 351 350 350 350 350
338 346 348 350 354 357 363 363 366 359 354 352 353 366 365 365 363 357 360 357 352 348 348 348 350 349 347 352 351 353 352 346 345 345 346 346 349 349 347 347 348 348 347 347 349 349 350 350 348 345 347 349 349 350 351 351 351 352 352 351 350 350 351 351 351 351 350 350 352 353 354 352 350 350 352 352 351 350 352 353 354 353 351 351 350 350 351 351 351 351 352 352 352 350 350 350 350
340 346 346 349 359 361 368 373 371 361 354 352 352 365 369 366 361 356 358 352 349 347 348 350 351 350 351 355 350 351 351 347 346 344 346 346 347 349 347 347 348 348 348 349 350 350 350 351 349 346 347 349 347 348 350 350 351 351 351 350 350 350 351 352 351 352 351 350 351 353 353 353 351 351 353 353 351 350 351 353 353 353 351 351 350 350 350 350 350 351 352 352 352 351 350 350 349
346 351 349 350 362 364 370 373 373 364 355 358 356 363 369 366 362 355 353 348 349 350 348 350 351 349 351 350 347 352 351 347 347 344 346 347 346 348 347 348 348 348 349 350 349 349 350 350 348 347 347 347 348 348 349 350 351 351 351 351 350 350 352 353 352 351 351 352 352 353 352 352 352 352 353 353 352 351 351 352 352 352 351 351 350 349 350 351 352 352 351 351 351 350 350 349 349
348 354 353 352 359 360 367 365 364 363 360 367 364 365 366 363 366 355 348 348 348 349 347 349 349 349 349 346 345 349 348 347 347 346 347 348 348 347 347 347 348 348 349 349 349 349 350 349 346 347 347 347 349 349 350 350 351 351 351 351 350 350 351 352 353 352 351 352 353 353 350 350 351 351 352 353 352 351 351 352 352 352 351 351 350 349 350 352 352 352 351 351 351 351 350 349 349
349 356 359 358 359 362 371 364 360 364 365 371 366 367 366 365 372 357 347 348 348 348 346 348 346 349 350 346 348 347 344 346 347 346 347 349 349 347 346 346 348 349 348 348 348 348 349 349 348 349 348 348 350 350 349 349 350 350 350 351 350 350 351 352 352 352 352 352 352 352 350 349 351 351 352 353 352 351 351 351 351 352 351 350 350 349 349 351 352 352 352 352 351 351 351 349 349
350 358 363 364 368 371 373 365 363 368 368 369 367 367 365 367 375 364 352 349 349 349 348 348 345 352 351 347 352 349 344 346 346 347 347 349 349 345 345 347 349 349 347 347 347 348 349 349 350 350 350 351 351 350 350 348 349 350 350 351 351 351 350 351 351 351 351 352 352 351 349 349 351 351 351 352 353 352 352 351 352 352 352 350 349 347 347 349 351 352 351 351 352 352 351 350 349
351 358 361 365 372 370 368 365 366 369 372 370 368 368 366 365 371 370 356 348 349 349 349 348 347 353 350 348 351 347 346 348 346 348 348 349 347 345 348 348 348 347 347 346 347 349 350 350 350 351 351 351 351 350 350 349 349 350 351 351 351 350 349 350 351 350 350 352 352 351 349 349 350 350 351 352 353 353 354 353 352 353 352 351 350 349 347 348 351 352 351 351 351 351 351 351 350
355 358 359 369 372 365 361 362 365 370 374 369 367 370 368 364 368 369 355 349 350 349 349 348 347 351 349 349 350 346 348 349 347 349 349 348 347 348 352 350 347 346 347 348 349 350 350 350 350 351 350 351 351 350 350 350 350 350 350 351 351 350 349 350 351 350 350 352 351 351 350 349 350 349 349 351 352 352 353 353 351 351 351 351 351 350 347 347 350 351 350 350 350 349 350 350 350
363 362 359 371 368 359 356 360 366 368 371 370 369 368 365 367 370 367 357 353 350 349 349 348 349 348 348 350 350 348 349 349 349 349 349 349 350 351 352 352 348 346 348 349 349 350 350 350 349 350 350 351 352 351 351 351 351 349 350 351 351 350 349 349 350 350 349 350 350 351 350 350 350 348 348 350 351 352 352 353 352 351 350 351 352 350 349 348 349 350 349 349 349 348 349 349 350
366 368 367 374 364 360 360 364 368 364 366 371 372 368 363 367 367 360 356 353 348 350 349 348 349 348 350 351 350 348 349 349 349 349 350 350 351 352 352 351 348 347 349 349 349 350 351 352 351 351 351 352 352 352 352 351 350 349 350 351 351 350 349 349 349 349 348 350 351 351 350 351 351 349 349 350 351 351 351 352 352 353 351 351 352 350 349 347 347 349 350 350 349 349 349 348 348
363 367 373 373 364 367 366 367 368 363 367 370 371 368 362 364 366 361 356 352 349 351 349 348 347 348 351 349 349 348 348 349 349 350 350 351 351 352 351 350 347 348 350 350 350 352 352 352 352 352 352 353 352 352 352 351 350 349 350 350 351 350 349 348 348 349 348 349 350 351 351 351 352 351 351 351 351 351 350 349 349 351 350 350 351 349 347 346 345 348 351 351 350 350 349 348 348
362 365 371 369 365 370 368 367 365 361 366 368 366 365 362 361 367 366 357 352 352 350 347 346 345 349 350 349 350 348 348 349 349 350 350 351 352 351 350 350 348 349 350 350 351 352 352 351 351 352 352 353 351 352 353 352 351 349 349 349 350 349 348 348 348 348 348 350 350 350 350 350 350 351 351 352 351 351 351 349 348 350 350 349 349 348 347 346 345 347 349 350 351 349 348 349 349
359 367 374 371 366 367 365 367 365 360 366 367 362 363 364 363 367 367 360 355 350 346 345 345 346 351 351 350 350 347 347 349 349 350 351 352 351 350 350 350 349 349 349 349 350 351 351 351 350 350 352 351 351 351 352 352 352 349 348 348 349 348 349 350 350 349 348 350 350 350 350 349 350 350 350 350 351 351 350 350 350 351 349 349 349 349 348 346 345 345 346 348 349 349 349 350 349
361 370 374 370 363 363 365 366 363 363 368 365 360 361 365 362 363 364 364 359 346 342 346 346 346 349 349 348 348 346 348 349 349 350 350 351 350 351 351 351 350 350 350 350 351 351 351 351 350 351 351 351 350 350 350 351 351 350 349 349 349 348 348 350 349 349 349 351 351 350 349 349 350 350 349 349 351 350 349 350 350 351 349 349 350 349 347 345 343 343 344 347 347 348 349 350 350
360 364 366 366 363 363 367 368 364 367 370 365 360 362 367 362 359 362 364 357 346 344 346 345 345 345 347 347 347 347 349 349 349 350 350 350 351 352 353 352 351 351 351 350 351 350 350 350 350 351 351 350 349 348 350 351 351 351 350 349 349 348 347 349 350 349 350 351 350 349 348 349 349 349 350 349 350 350 349 349 349 351 351 350 350 348 347 343 342 343 343 345 345 347 349 350 351
357 363 364 362 366 368 369 369 365 367 369 365 361 363 369 363 360 363 358 350 347 347 345 345 347 346 347 348 348 348 349 349 349 350 350 350 350 351 352 352 352 352 351 351 350 349 349 350 350 350 350 349 348 349 350 351 351 351 350 350 349 348 349 350 350 351 350 350 349 348 348 349 348 348 350 349 349 349 348 348 350 352 351 349 349 348 346 343 343 343 342 343 343 346 350 350 350
358 367 365 363 370 371 367 364 361 366 365 362 362 361 365 363 362 362 355 351 349 348 348 348 349 349 349 348 348 349 349 349 349 350 350 349 349 350 351 352 353 352 351 350 350 348 348 349 349 349 349 348 347 349 350 351 351 351 351 351 350 350 350 350 351 351 349 348 349 350 350 349 349 348 348 347 348 348 348 349 351 351 349 348 347 346 345 343 341 341 342 343 345 347 349 349 349
359 365 367 369 371 369 367 361 358 366 364 360 363 360 361 363 364 362 356 354 350 348 351 351 352 351 349 348 348 349 348 349 350 350 349 348 349 350 351 352 353 353 351 350 350 348 348 348 348 348 348 348 347 348 349 349 350 351 351 351 351 351 350 350 350 350 349 349 350 351 351 351 350 348 345 346 349 350 349 350 349 347 346 345 343 343 342 340 339 340 342 345 346 347 348 348 347
360 365 372 371 368 369 368 361 358 364 363 360 362 361 362 362 362 365 360 355 351 350 351 350 351 351 349 348 347 348 348 348 349 350 349 348 349 350 351 352 353 353 351 350 350 349 348 348 347 348 348 347 347 348 348 348 349 350 350 351 350 350 350 350 350 350 350 350 350 350 350 350 350 349 348 349 351 351 350 348 347 344 343 342 342 342 340 338 338 341 343 344 345 345 345 345 345
363 366 370 365 361 366 363 359 359 360 361 360 360 361 362 361 361 366 362 352 350 349 348 349 349 349 349 348 348 348 348 348 349 349 349 349 350 350 351 352 353 353 352 350 350 350 349 348 347 348 348 348 347 348 348 348 349 349 350 350 350 349 350 350 349 349 349 349 349 348 348 348 349 350 349 349 350 349 347 346 345 344 342 342 341 340 338 338 338 340 341 342 343 343 344 345 345
367 367 363 360 359 361 357 357 358 356 358 359 358 360 361 363 363 363 362 355 352 348 346 348 348 348 348 348 348 347 347 348 348 348 349 349 350 350 351 352 353 352 352 351 350 350 349 348 347 348 347 347 348 348 349 348 348 348 348 349 349 349 349 349 349 348 348 348 347 346 346 347 348 349 348 348 346 346 346 345 344 344 343 343 340 338 338 338 339 341 342 343 344 344 345 345 346
373 372 362 360 358 357 355 355 356 356 358 357 357 359 360 365 362 358 362 359 352 348 346 347 347 348 347 347 347 347 347 348 348 348 349 350 350 351 352 352 353 353 352 351 349 348 348 348 347 347 346 346 347 347 349 349 348 347 347 348 348 348 348 348 347 348 347 347 346 345 345 346 346 347 347 346 344 344 344 344 343 343 343 342 340 340 340 341 342 344 345 345 345 345 345 345 345
373 371 363 362 359 357 355 354 355 356 357 356 356 360 360 361 358 356 363 357 348 347 346 346 347 347 347 347 347 347 347 347 347 348 348 349 350 351 352 353 353 353 352 351 348 348 348 348 347 346 346 346 346 347 348 349 348 348 348 347 347 347 347 346 346 347 347 347 347 346 345 345 345 345 345 344 343 343 343 342 343 343 343 343 343 344 344 345 346 346 346 345 345 344 344 344 344
368 366 363 361 359 358 358 357 356 357 357 357 359 362 360 357 356 358 361 352 346 347 345 346 346 347 348 347 347 347 347 347 347 347 348 349 350 351 352 353 354 353 353 351 349 348 348 347 346 346 346 345 345 346 348 349 348 348 348 347 346 346 346 346 346 346 347 347 347 346 345 344 344 344 343 342 342 342 342 342 344 344 345 346 346 346 346 346 345 345 345 344 344 343 342 342 343
363 362 363 361 362 362 362 362 361 360 360 360 361 361 359 357 356 358 355 347 346 346 345 346 346 347 348 347 347 347 347 347 347 347 348 349 350 351 351 352 353 353 352 351 350 349 349 348 346 346 346 345 345 346 347 349 349 349 348 348 347 346 346 346 345 345 346 347 347 346 346 345 345 343 343 342 342 342 342 343 344 345 346 346 347 346 346 345 344 343 343 343 343 343 342 341 341
360 361 365 364 365 366 364 366 365 360 358 359 361 359 359 357 355 355 350 345 347 346 345 346 346 347 347 346 346 346 346 346 347 347 348 350 351 351 351 352 352 352 352 351 351 350 349 349 347 347 346 346 346 346 348 349 350 350 349 349 349 347 346 346 346 345 345 346 345 345 345 345 344 343 343 342 342 342 342 343 344 344 345 345 346 345 344 343 343 343 343 344 344 345 344 343 341
359 361 367 366 369 370 366 369 369 363 358 360 360 355 358 359 355 353 348 345 346 345 346 346 346 347 346 346 346 346 346 346 347 347 348 350 350 351 351 351 351 352 352 350 350 349 350 349 348 347 346 346 346 346 348 350 350 350 349 347 349 348 346 346 346 345 345 345 345 345 344 344 343 343 343 343 343 343 343 343 344 345 345 345 344 344 343 343 342 343 344 346 348 348 345 344 343
361 362 366 367 370 371 369 370 369 367 360 359 360 353 357 360 355 352 346 345 346 345 346 345 346 346 345 346 345 346 345 345 347 346 348 349 350 351 351 351 351 352 351 351 350 349 349 348 347 347 347 347 347 346 348 350 350 350 349 347 347 347 347 346 345 344 345 347 348 348 347 345 343 343 344 344 345 344 343 344 345 345 344 344 344 344 343 344 344 345 347 349 350 349 348 346 345
365 364 365 368 363 364 372 371 367 368 358 358 363 354 355 358 353 351 347 345 346 346 346 345 345 346 345 345 345 345 344 344 346 346 347 349 349 350 351 351 351 351 351 350 350 349 348 347 347 347 347 347 347 346 347 350 350 350 350 349 348 346 346 346 345 345 347 349 350 349 348 346 344 345 346 346 346 346 344 344 345 345 344 344 344 344 344 345 346 347 349 350 349 349 351 350 347
365 361 360 364 360 362 373 368 361 363 355 357 364 356 355 356 351 350 346 345 347 346 346 345 345 345 345 345 344 344 343 343 344 345 347 348 349 350 351 351 352 351 350 350 350 349 349 348 347 348 347 347 347 346 346 349 350 349 350 350 348 346 346 346 346 346 348 350 349 348 347 347 347 347 348 347 347 347 345 344 345 345 345 345 345 345 345 346 348 348 349 350 350 350 351 351 347
364 360 358 359 360 363 367 362 356 358 357 358 362 359 358 356 350 349 347 347 348 346 346 346 345 345 344 344 343 343 342 343 343 345 347 347 348 349 351 352 351 351 350 350 350 350 350 348 347 347 347 347 347 346 345 347 349 349 349 349 348 346 345 346 347 348 349 349 349 349 348 348 348 348 348 348 348 346 344 344 346 346 345 345 345 346 347 348 349 348 349 351 352 351 352 350 345
358 361 361 359 362 361 359 362 359 357 361 361 364 366 361 355 350 348 347 348 348 346 345 346 345 345 345 343 342 342 341 343 343 344 346 346 347 349 351 352 351 352 351 350 350 351 351 349 348 347 348 348 347 347 345 345 348 348 348 347 347 347 345 346 347 349 349 349 349 348 349 348 348 349 348 347 347 345 344 346 347 346 346 347 347 348 349 350 350 350 350 350 352 352 352 349 343
354 357 359 357 362 361 359 365 362 358 363 363 366 368 362 358 354 351 351 348 346 346 345 346 345 344 344 343 342 341 341 342 342 343 345 345 347 349 351 352 351 352 352 351 350 352 351 350 349 348 348 349 348 347 346 345 346 347 347 346 347 347 348 348 348 348 348 348 348 348 348 349 350 350 349 347 346 345 346 348 348 348 348 348 349 350 352 352 352 353 352 350 350 351 349 347 341
357 357 357 357 359 361 363 364 357 358 366 366 366 366 363 361 358 359 360 354 347 345 346 346 346 344 342 342 341 340 341 342 341 343 345 346 348 350 350 351 351 352 353 353 352 351 351 349 349 349 349 349 348 347 346 346 346 347 347 347 347 348 349 350 350 349 347 347 347 348 349 352 352 350 348 346 344 345 346 348 349 349 349 349 351 353 354 354 354 353 353 352 351 349 346 344 341
359 357 357 360 359 360 364 362 356 358 365 365 364 365 363 359 358 362 365 362 352 344 346 347 345 344 342 341 341 341 341 340 340 343 346 347 349 350 350 351 352 353 353 353 352 350 349 349 349 350 350 349 349 348 347 347 348 347 347 347 347 347 348 350 352 351 350 349 349 350 352 353 351 348 347 345 344 346 347 348 349 349 350 351 353 355 356 356 355 354 354 352 351 349 345 342 341
358 358 357 358 358 361 362 361 357 358 365 364 361 364 363 359 358 362 367 368 357 346 345 346 346 344 343 342 341 341 341 341 343 345 346 348 350 350 351 351 351 352 352 352 352 351 349 349 350 351 350 350 349 349 349 349 349 349 347 347 347 346 347 349 351 352 352 352 352 352 353 354 350 347 346 345 346 347 347 349 350 350 352 353 354 356 357 356 356 355 355 352 350 349 346 342 340
357 356 356 355 359 363 360 360 357 356 365 365 360 362 363 361 360 362 367 369 368 362 351 344 345 345 343 343 341 340 342 346 347 346 347 349 350 350 350 350 351 351 352 352 351 351 350 349 349 350 350 350 350 349 350 350 350 349 348 347 347 347 348 349 350 352 353 354 354 353 353 353 349 346 346 346 347 348 348 349 350 351 353 354 355 356 356 356 356 355 355 352 349 348 348 345 342
358 354 352 353 358 358 355 360 359 357 362 362 360 362 363 363 361 361 364 367 373 374 362 350 346 345 344 343 341 340 343 348 349 347 348 349 349 351 350 350 351 351 352 352 351 350 350 350 348 349 350 349 350 350 350 350 350 350 349 348 348 348 348 349 350 352 353 353 354 354 353 352 350 349 349 350 350 349 349 350 351 352 353 355 356 356 356 357 355 355 354 351 348 348 348 349 347
355 352 349 354 360 360 359 361 360 359 360 360 360 358 359 363 362 363 365 365 369 372 365 355 351 348 344 344 342 341 345 348 349 348 348 348 349 350 350 350 351 351 352 352 352 351 350 350 349 349 349 349 350 350 350 350 350 350 349 349 349 349 349 349 350 351 353 353 353 354 353 352 352 353 354 355 354 351 350 351 352 353 354 355 356 356 357 356 353 354 354 351 349 349 348 348 349
347 351 349 354 360 365 366 362 360 358 357 360 359 352 353 360 362 363 365 366 367 370 364 354 355 356 347 344 343 341 345 348 348 349 348 348 350 350 351 351 351 352 352 352 352 351 350 350 349 349 349 349 350 350 350 350 350 349 349 349 348 348 349 349 350 351 353 352 352 354 352 351 353 355 356 357 356 354 352 353 354 354 355 355 356 357 357 355 354 354 353 351 350 349 349 347 349
339 352 351 353 359 365 363 358 357 355 355 361 360 354 352 355 359 361 363 367 367 369 366 357 358 361 351 345 344 342 344 349 348 348 348 348 349 350 351 351 352 352 352 353 352 351 351 350 350 350 349 350 350 349 349 349 349 349 349 348 348 348 348 348 349 350 351 351 351 354 352 350 353 355 356 356 357 356 356 355 354 355 355 355 356 355 355 355 355 354 353 352 350 349 348 347 347
333 350 355 356 360 363 360 358 358 356 356 360 361 359 355 352 356 359 361 365 367 366 367 362 360 362 355 345 343 343 344 348 349 348 349 348 349 350 351 352 352 352 352 353 353 352 352 351 351 351 350 351 350 349 349 348 349 349 348 348 347 347 347 347 348 349 350 350 350 352 352 350 352 355 356 356 356 356 357 356 355 355 355 355 356 354 355 356 355 354 353 352 351 350 349 348 347
333 350 357 357 360 361 359 357 358 357 354 355 357 357 353 352 359 364 363 363 365 365 365 363 361 362 360 350 343 343 344 348 349 348 349 348 349 350 351 352 352 352 353 353 354 353 352 351 351 351 351 351 350 349 349 348 349 349 348 348 347 347 347 346 347 348 349 349 349 350 350 350 353 355 356 356 356 356 356 356 356 356 355 355 356 355 355 356 355 354 354 353 353 351 351 351 349
342 352 354 354 354 355 354 354 354 355 353 352 355 354 351 353 358 363 364 360 360 363 362 362 361 360 360 355 348 344 344 348 348 348 349 348 349 350 350 352 352 352 353 353 354 353 352 352 352 352 352 351 349 349 350 349 348 349 348 348 348 347 347 346 346 348 348 348 348 348 348 349 353 355 357 357 356 355 354 355 356 356 355 355 355 355 355 356 355 355 355 355 354 353 352 352 351
350 351 351 350 351 350 351 352 351 351 351 351 351 352 352 352 355 357 359 359 358 360 360 360 362 360 360 358 352 345 343 347 349 349 349 349 350 350 350 352 352 353 353 353 354 354 354 353 353 353 351 350 350 351 352 351 348 348 349 349 348 348 348 347 347 347 348 348 347 347 348 350 353 355 357 357 356 355 353 354 356 356 356 355 355 355 355 356 356 356 356 356 355 354 353 353 353
353 354 351 348 351 351 351 352 352 350 351 352 351 354 353 350 354 358 357 357 357 358 359 359 361 361 360 359 354 347 343 346 350 350 349 350 350 350 351 352 353 353 354 354 354 354 354 354 354 354 352 350 351 352 354 353 349 349 349 349 349 348 348 348 347 347 348 348 348 349 349 351 353 355 356 357 357 355 353 353 355 356 356 355 355 356 356 356 356 357 356 355 355 354 353 354 353
355 353 348 347 349 351 351 350 350 350 351 353 353 354 354 350 353 359 360 358 357 357 355 356 358 358 360 360 354 348 346 346 350 352 351 351 350 351 352 352 353 354 354 354 355 354 354 355 354 354 353 352 353 354 355 354 352 352 350 349 348 347 347 347 347 347 347 347 348 351 351 351 354 355 355 356 356 354 352 352 354 356 356 355 356 356 356 355 356 357 356 355 355 354 354 354 353
355 348 342 346 349 350 353 350 348 349 349 351 354 354 353 351 354 359 360 358 356 355 354 354 356 356 359 363 358 349 346 348 351 352 351 351 351 351 352 353 353 354 354 355 355 355 355 355 355 354 354 354 354 355 355 355 354 353 350 348 347 347 347 347 347 347 348 347 348 350 350 351 353 354 354 354 355 354 351 351 353 355 355 355 355 356 356 355 354 356 356 355 354 354 355 355 353
359 355 345 342 344 346 350 350 349 351 350 351 353 353 352 353 358 362 361 358 357 355 354 354 355 355 357 363 363 353 346 349 352 352 352 352 351 352 352 353 353 353 355 355 355 355 355 355 355 355 355 355 355 355 355 355 355 353 351 348 347 347 347 347 347 348 348 348 348 349 350 350 351 352 353 353 354 354 351 351 353 355 355 355 355 355 354 355 355 354 355 356 355 354 355 355 354
350 350 342 337 342 348 346 344 347 350 352 353 352 352 357 360 363 366 364 361 358 356 356 357 356 356 355 359 363 359 349 348 352 353 352 352 351 352 353 353 354 354 354 355 355 355 355 355 355 355 355 355 356 356 356 355 355 354 352 349 348 349 348 348 348 348 349 349 348 349 349 350 350 351 352 353 354 354 352 352 353 355 357 356 355 354 354 356 356 355 356 356 355 355 355 354 354
340 334 336 338 343 352 346 341 345 346 346 348 348 352 358 357 356 363 366 363 359 358 358 358 357 356 355 354 358 359 352 348 351 353 352 352 351 351 352 353 354 354 354 355 355 355 355 355 354 354 355 355 356 356 356 356 356 355 353 351 351 351 350 350 349 349 350 349 348 349 350 350 350 350 351 352 354 355 354 354 353 354 356 357 356 355 354 356 357 356 357 356 356 356 356 355 355
334 326 333 336 337 346 349 346 347 345 342 344 347 353 355 349 349 360 367 365 361 358 358 359 358 356 355 353 353 356 353 348 350 353 351 351 352 351 352 353 353 354 355 356 355 355 355 355 354 354 355 356 356 356 357 356 356 355 354 353 353 353 352 352 352 351 350 349 348 349 350 350 350 350 351 352 353 355 354 354 354 353 354 356 357 356 356 356 357 356 356 356 356 356 356 356 356
331 327 329 332 333 335 337 341 345 343 343 345 346 349 351 348 351 362 367 366 363 359 358 360 358 356 355 352 353 355 354 350 351 353 352 350 351 351 351 352 354 354 354 356 356 356 356 355 354 354 354 356 357 357 357 356 355 354 354 353 354 354 353 352 353 353 351 349 349 350 351 350 351 351 351 352 354 355 354 354 354 354 354 355 356 357 357 356 356 356 355 355 354 354 355 356 356
328 327 325 329 338 339 335 337 342 344 345 346 344 343 348 354 360 367 366 364 362 359 359 360 357 356 355 351 353 355 353 352 351 352 355 353 350 350 351 352 354 355 354 356 356 356 356 355 355 356 355 357 357 357 357 356 355 354 354 354 354 355 355 354 354 353 351 351 350 350 351 351 352 353 353 353 353 354 354 354 355 355 355 355 355 356 356 356 356 357 356 355 354 354 356 355 355
322 322 320 322 328 333 335 335 337 345 349 348 344 341 349 361 366 370 366 360 361 358 358 360 357 356 355 352 355 355 353 353 353 353 355 354 349 347 351 352 353 356 355 356 356 356 356 356 356 356 356 357 358 357 357 356 356 356 355 354 354 355 356 356 354 353 352 352 352 352 352 352 352 353 354 354 354 354 354 354 355 355 355 355 355 356 357 356 356 357 357 357 356 355 357 357 357
325 323 322 325 327 330 335 333 331 341 347 347 345 342 353 363 364 369 367 360 360 359 357 359 358 356 356 357 358 354 352 355 357 357 353 350 347 347 349 351 353 356 356 356 357 357 357 357 357 356 357 357 358 357 358 357 356 358 357 354 354 356 357 356 355 355 354 354 354 353 353 352 353 353 353 352 352 353 354 356 356 355 355 356 356 356 358 358 357 357 357 358 357 356 357 359 358
Wind_Speed
10 9 7 5 2 0 1 1 1 1 2 3 1 1 1 2 1 1 3 4 4 3 3 5 8 6 4 5 6 5 4 3 3 4 2 3 19 22 17 18 18 16 15 13 12 11 9 8 6 6 7 7 7 8 7 8 9 10 11 11 11 12 12 12 12 12 12 13 14 13 13 14 14 14 15 15 14 14 14 14 14 14 14 15 15 14 15 15 16 16 16 16 15 15 15 15 16
10 9 6 3 1 0 1 0 2 2 3 3 1 0 2 1 1 2 6 5 3 4 6 7 7 4 7 9 7 6 5 4 1 3 2 12 22 17 18 20 18 17 16 14 13 11 9 8 5 5 6 7 7 7 7 7 8 9 10 10 11 12 11 12 12 12 12 13 14 14 14 14 14 14 15 14 14 14 13 13 14 14 14 15 15 15 15 15 15 15 15 15 15 15 14 14 15
9 8 4 1 1 1 1 1 2 2 3 4 1 2 2 2 1 3 5 5 6 10 10 8 7 3 5 7 3 3 2 4 3 4 5 16 16 14 21 19 18 18 16 15 12 11 9 7 5 5 6 7 7 7 7 7 8 8 9 9 11 11 11 11 12 12 13 14 13 14 14 14 14 14 14 13 14 14 13 13 13 14 14 15 15 15 15 15 14 14 14 14 14 14 14 14 14
7 5 2 1 0 0 1 2 1 3 4 3 2 2 2 3 2 5 5 6 8 11 9 5 4 2 3 6 2 3 3 2 3 5 6 12 15 20 23 19 19 17 15 14 12 11 9 7 5 5 6 6 6 7 7 8 8 8 8 9 10 10 10 11 12 12 13 13 13 13 14 14 13 13 13 13 13 13 13 13 13 14 15 15 15 15 14 14 14 14 14 14 13 13 13 13 13
5 1 2 2 1 1 1 2 1 3 3 2 2 2 3 1 3 5 5 6 5 7 6 3 3 2 4 4 1 2 3 4 3 7 9 12 19 24 21 20 19 16 15 13 12 11 9 7 5 4 5 6 6 7 8 9 8 8 9 8 9 9 9 11 11 12 13 12 12 13 14 14 13 13 12 12 13 13 13 13 13 14 15 16 15 15 14 13 13 14 13 13 13 13 13 12 12
4 1 1 2 0 0 1 2 2 3 1 2 2 3 2 1 2 4 7 7 6 7 5 5 6 5 4 3 3 2 4 6 6 8 12 16 23 24 21 20 18 16 15 13 13 11 9 7 5 5 4 5 6 6 8 9 8 8 8 8 8 9 10 11 11 11 12 12 12 13 14 15 14 13 13 12 12 12 12 12 13 13 15 16 15 15 14 13 13 13 13 13 13 12 13 12 12
3 0 0 0 0 1 2 3 3 2 1 1 2 2 2 1 2 3 8 8 7 8 7 6 8 8 4 3 4 3 6 7 7 10 17 22 23 22 21 21 18 16 15 13 12 10 9 7 6 6 5 5 6 6 7 9 9 8 8 8 8 9 10 10 10 11 12 12 13 14 14 14 14 14 13 12 12 12 12 12 13 13 14 15 15 15 13 12 12 13 13 12 12 12 12 12 12
2 0 0 2 1 2 2 2 2 1 2 1 2 2 1 2 2 2 6 6 5 4 7 6 6 9 4 4 3 2 9 9 10 16 22 23 22 21 20 19 17 15 14 13 11 10 9 7 8 7 6 6 5 6 6 7 9 8 8 8 8 9 9 9 10 11 12 12 14 15 14 14 14 15 14 12 10 11 12 12 13 13 14 15 15 14 13 13 12 12 12 11 12 12 12 11 11
0 0 0 2 2 3 2 2 2 1 2 2 2 1 0 1 1 2 6 6 6 6 8 5 3 8 4 6 5 1 9 13 17 21 23 22 21 20 18 17 16 15 14 12 11 11 9 8 8 7 7 6 5 5 5 6 7 8 8 8 9 9 10 10 10 10 12 12 14 15 14 14 13 15 15 13 11 10 11 11 12 13 14 15 15 14 13 13 12 11 12 11 11 12 12 11 10
1 0 0 1 2 3 3 3 1 1 2 2 3 2 2 2 1 3 7 7 8 8 7 4 5 10 7 6 5 2 11 19 22 21 21 21 20 18 16 15 15 15 14 12 11 10 9 8 7 7 6 6 5 5 6 6 6 7 8 9 9 9 10 11 10 10 12 12 14 15 14 14 13 13 14 14 12 10 10 10 12 13 14 15 14 14 13 13 12 11 11 10 11 12 11 11 10
2 1 1 2 3 3 2 2 2 2 4 3 3 3 2 1 1 4 8 7 7 9 9 8 8 11 10 5 2 8 18 21 21 21 20 20 19 17 17 16 15 15 14 12 10 9 8 7 7 7 7 6 6 5 6 6 6 7 9 10 9 9 9 10 10 10 11 12 14 15 14 15 13 12 12 13 13 10 10 10 11 13 14 14 13 14 13 12 12 11 10 10 10 11 10 10 10
2 2 2 3 2 1 2 0 3 3 6 5 3 4 2 1 4 6 8 8 9 11 7 5 7 7 8 4 1 12 20 19 20 22 21 20 19 18 17 17 16 15 13 12 11 9 8 7 7 7 7 6 6 6 5 6 6 8 9 9 9 8 9 9 10 10 11 12 12 13 14 15 15 14 11 11 12 11 11 11 11 11 13 12 11 12 12 12 12 11 10 9 10 10 9 9 9
0 1 3 2 1 1 1 1 4 3 3 3 2 4 2 2 4 6 7 9 9 9 5 5 10 7 6 5 4 10 14 16 20 21 21 21 19 18 18 17 17 15 13 12 11 10 9 8 8 7 6 6 6 6 6 6 7 8 8 8 8 7 8 9 9 10 11 12 13 13 13 14 16 15 13 13 13 12 12 13 13 11 12 12 10 11 12 11 11 10 9 9 9 9 9 8 8
2 0 3 2 0 1 1 2 3 3 2 4 2 4 2 2 3 2 7 10 3 4 7 8 11 9 7 6 5 6 10 18 22 21 22 21 20 18 18 17 16 14 12 12 11 10 9 9 9 8 7 7 7 7 7 6 7 7 6 7 7 7 7 7 8 10 11 12 14 14 13 13 14 15 15 14 13 12 13 14 14 12 11 11 10 10 11 10 10 10 9 8 8 9 8 7 7
3 1 3 2 1 2 1 2 3 3 2 4 1 4 3 2 2 3 4 7 3 5 11 8 7 7 7 8 7 8 13 22 23 22 22 20 19 17 17 16 15 13 12 12 11 11 10 10 10 8 7 8 8 8 8 6 7 6 6 7 7 8 8 7 8 10 12 13 14 15 14 13 13 13 15 15 13 13 15 15 14 11 11 12 10 9 10 10 9 9 9 8 8 7 6 6 7
3 2 3 2 1 1 1 2 4 3 2 3 2 4 3 2 2 2 2 3 7 7 6 6 4 5 8 6 8 15 20 25 24 24 22 20 18 16 16 15 14 13 12 12 12 11 11 10 10 9 8 8 8 8 9 7 7 7 7 9 9 10 10 10 9 10 12 13 15 15 14 13 12 13 14 15 14 13 14 15 14 11 11 11 10 9 9 9 9 9 8 7 7 7 6 6 6
2 2 1 0 1 2 2 4 4 3 3 4 3 2 1 1 1 0 2 3 10 7 4 5 4 7 9 8 15 23 25 27 26 24 21 19 18 16 15 14 14 12 11 12 12 11 11 10 10 10 9 8 8 10 10 9 8 8 9 10 10 11 12 12 12 12 13 14 15 15 14 13 13 14 14 15 14 12 13 14 13 10 10 10 9 10 9 9 9 8 8 8 7 7 7 6 6
2 2 1 2 3 3 4 7 5 3 4 5 6 6 4 2 2 2 1 6 7 8 7 6 7 9 11 15 23 26 26 27 26 23 19 18 16 14 14 14 14 12 11 12 11 11 10 10 10 9 9 8 10 11 11 10 9 9 10 11 11 11 11 13 13 13 14 15 16 15 14 13 13 14 15 15 13 11 11 12 11 9 10 10 9 9 9 9 9 8 8 8 8 8 8 7 7
3 2 2 4 5 4 5 7 5 3 4 6 7 9 6 3 3 1 4 8 6 9 8 9 11 11 13 18 24 24 26 26 23 22 18 17 16 14 13 13 13 12 12 12 11 10 9 9 9 9 9 9 10 11 10 9 10 10 10 12 12 11 11 13 13 14 14 15 17 16 16 15 13 13 14 14 12 10 10 10 10 9 9 9 9 9 9 9 9 9 9 8 8 8 8 7 7
3 2 3 5 4 3 3 6 8 6 8 10 8 7 6 2 2 1 6 10 7 9 9 11 13 12 14 15 20 23 23 22 20 20 17 16 16 15 15 14 13 13 13 12 11 10 10 10 10 10 10 10 10 10 10 9 10 10 11 12 13 12 12 13 13 14 15 16 17 18 18 17 14 13 13 12 11 11 11 10 9 9 9 9 9 9 9 10 10 10 10 9 8 8 8 7 6
2 3 4 4 2 2 2 4 9 9 9 11 8 7 7 3 3 1 7 9 7 9 11 14 16 16 16 14 17 20 19 18 18 17 15 16 16 16 16 15 15 14 13 12 12 12 11 11 11 12 12 11 10 10 10 10 11 11 11 11 12 12 13 13 12 13 15 16 16 16 17 18 17 16 14 14 13 13 12 10 9 9 9 9 9 8 9 10 10 10 9 9 8 8 8 7 6
2 3 2 2 1 1 2 2 9 10 7 8 8 8 6 4 3 1 6 9 7 8 12 15 17 17 17 16 17 17 16 15 15 15 15 16 16 15 15 14 14 13 13 13 13 13 12 12 12 13 13 12 11 11 11 11 12 11 11 11 12 13 13 14 13 13 14 14 14 14 15 16 17 17 16 15 14 13 12 10 9 9 9 9 9 9 9 9 9 9 8 7 7 7 7 7 7
2 1 2 4 2 1 2 3 7 12 11 10 9 6 4 4 3 2 5 7 6 8 13 15 16 18 20 18 16 15 14 13 15 16 16 16 16 16 16 15 15 15 15 14 14 13 13 14 14 14 14 13 12 12 12 12 12 11 11 11 12 13 13 13 13 14 13 13 12 12 13 14 14 14 14 13 12 12 11 9 8 8 9 9 9 9 9 8 8 7 6 5 5 6 6 5 5
3 1 2 3 3 3 3 2 4 10 11 10 8 5 4 5 3 3 3 4 8 11 14 15 16 20 20 16 14 14 15 15 17 18 18 18 18 18 18 17 17 16 16 16 15 14 15 15 15 15 14 14 13 13 13 13 12 12 11 11 12 13 13 13 14 14 14 13 12 11 12 12 12 11 11 11 10 11 10 9 8 8 8 8 8 8 7 7 6 5 5 5 5 4 4 4 4
2 2 1 2 3 5 5 6 9 7 6 8 8 5 3 4 4 1 3 5 13 14 15 16 16 17 16 14 14 14 14 16 18 18 18 17 17 18 18 18 18 17 18 17 16 15 15 15 15 15 15 14 14 13 13 13 13 12 12 12 11 12 13 13 14 14 14 12 11 11 11 11 10 9 10 10 10 9 9 8 8 8 8 7 7 6 6 6 6 5 4 4 3 3 3 3 3
2 4 3 3 3 4 4 6 9 5 4 7 7 5 1 2 5 1 4 9 16 16 16 16 16 15 14 13 14 13 13 15 18 18 18 18 18 17 17 19 19 19 19 18 17 16 15 15 14 15 15 14 14 13 13 13 13 13 13 12 11 12 13 14 14 14 13 11 10 10 9 9 9 8 9 9 9 8 8 8 8 8 7 6 6 5 6 6 5 4 3 2 3 3 3 4 4
6 7 5 4 4 3 3 4 6 4 2 3 5 6 3 3 4 1 6 14 17 16 16 15 16 15 14 13 12 14 14 15 18 18 17 17 18 18 18 19 19 18 19 19 19 17 15 15 15 14 14 14 13 13 13 13 13 13 13 12 12 12 13 13 13 13 12 10 10 9 8 8 8 8 9 9 8 8 8 8 8 6 5 5 5 5 5 5 4 3 2 3 4 5 5 4 4
10 9 7 4 4 4 4 2 4 5 3 2 2 5 4 3 2 2 8 15 17 17 16 15 15 14 14 14 12 12 13 16 19 16 16 19 19 19 19 20 20 19 19 20 19 18 16 16 15 15 15 15 13 13 14 14 13 13 12 12 12 11 12 13 13 12 11 10 10 9 9 9 8 9 9 9 8 8 8 8 6 5 4 5 5 5 5 5 4 3 3 4 6 7 7 5 5
8 5 6 4 4 4 3 2 2 5 4 1 1 3 4 5 5 7 11 15 16 17 16 14 14 12 12 13 10 9 11 15 17 15 17 21 21 21 21 21 21 20 20 19 19 18 17 16 16 16 16 15 13 14 15 15 13 12 11 11 11 11 12 12 13 12 12 11 10 10 9 9 8 9 8 8 7 6 7 6 5 5 5 6 6 6 5 4 3 3 3 5 6 7 8 6 6
4 1 4 4 3 3 3 2 2 5 5 2 3 4 3 6 9 11 12 15 17 16 15 13 11 11 11 11 9 8 10 13 15 16 19 21 22 22 22 21 22 22 21 19 19 18 17 16 16 16 17 16 14 14 15 15 13 12 11 10 11 12 13 13 13 13 13 11 9 8 8 7 7 6 6 5 4 5 5 5 5 5 6 6 6 6 4 3 3 3 4 5 5 6 7 7 8
3 2 2 2 3 1 3 3 2 4 3 5 2 4 2 6 11 12 13 15 17 15 13 12 10 10 10 9 9 8 9 14 18 19 21 23 23 22 23 23 22 23 23 22 20 18 17 17 16 17 17 16 16 16 15 15 13 13 12 11 11 12 13 14 14 14 13 10 8 7 6 6 6 4 3 2 2 3 4 5 5 5 7 7 7 6 4 3 2 3 5 6 5 5 7 7 8
2 3 1 2 2 1 3 5 6 5 4 10 9 3 1 7 10 11 13 14 15 15 12 12 11 11 10 8 9 8 8 14 19 20 22 24 23 23 24 24 23 24 25 24 21 19 18 17 16 16 17 17 17 16 15 15 13 13 12 11 11 12 14 14 14 14 12 10 8 7 6 5 4 3 2 2 2 3 5 6 5 6 7 7 7 6 4 2 2 2 4 6 6 7 8 7 6
2 2 3 2 2 1 2 5 7 6 2 7 9 3 1 3 10 11 12 14 14 14 12 12 12 11 10 8 8 7 6 9 13 17 22 23 23 24 25 26 25 26 26 25 22 21 20 18 17 17 17 17 16 16 15 14 13 12 11 12 12 13 14 15 14 14 12 11 9 8 6 3 3 3 3 4 3 4 5 6 6 7 8 7 7 5 3 2 2 3 3 5 7 8 10 7 4
1 2 2 1 2 3 2 1 2 5 4 4 6 3 3 4 9 12 11 14 14 12 13 13 12 10 9 8 7 6 6 8 9 15 22 23 23 23 24 26 26 26 25 25 23 21 21 20 19 18 17 17 16 15 15 14 13 12 12 13 13 14 14 14 14 14 13 12 10 8 5 4 3 3 4 4 4 5 5 6 6 7 7 7 6 5 3 1 1 3 4 4 6 9 10 5 2
4 3 3 2 2 3 3 2 3 4 7 3 3 4 3 7 3 5 3 10 14 13 13 12 11 10 9 8 7 6 8 9 10 19 24 23 23 23 23 24 25 25 24 24 22 21 21 20 20 19 18 17 16 16 15 15 14 13 13 14 15 14 14 13 13 13 13 12 11 8 6 4 3 4 4 5 6 6 7 7 7 7 6 6 5 4 3 1 1 3 5 5 7 8 7 3 3
7 5 3 5 3 2 3 2 2 2 5 4 2 4 3 4 1 2 4 1 8 12 11 11 10 9 8 8 6 7 9 9 13 23 25 23 24 24 24 23 24 24 24 24 22 21 21 20 21 20 19 18 17 17 17 16 15 14 14 15 16 15 14 14 12 12 12 12 11 9 6 5 3 3 4 5 7 9 8 7 7 7 7 7 5 4 4 2 2 4 6 7 9 6 4 1 4
5 3 3 4 4 2 2 2 2 3 3 2 3 5 4 0 2 2 3 3 5 10 11 10 10 8 9 8 8 9 9 9 15 23 24 24 25 24 24 23 23 23 23 23 23 22 22 21 22 22 20 19 18 19 18 17 16 15 15 17 17 17 16 15 13 12 12 11 10 9 7 5 3 3 5 7 9 10 9 8 7 7 8 7 5 5 4 3 3 5 6 7 8 6 5 1 6
4 4 4 4 3 2 3 3 5 4 2 1 3 5 3 2 3 4 1 1 6 10 11 12 10 9 9 9 9 9 7 7 12 17 19 22 23 24 25 24 25 25 24 24 24 24 23 22 22 22 21 21 20 19 18 17 16 16 16 17 18 17 17 17 15 14 12 11 10 9 7 4 2 3 6 8 9 9 9 8 8 8 8 7 6 5 4 4 4 5 5 5 4 6 9 5 5
5 4 4 4 3 3 4 5 6 3 0 2 4 6 5 2 3 5 2 2 4 5 9 13 11 10 9 9 10 9 7 8 10 12 16 21 22 24 25 24 25 26 26 26 25 25 24 23 22 22 22 21 20 19 18 17 15 15 15 16 18 17 17 16 15 14 13 12 11 9 7 4 3 5 7 7 7 8 7 7 8 9 8 7 6 4 4 3 3 4 5 5 3 6 8 7 3
4 4 4 4 5 5 2 5 7 0 1 3 4 4 3 1 3 6 5 4 3 3 5 10 10 10 12 12 11 10 9 10 11 11 14 18 21 22 23 23 24 24 24 25 26 26 25 25 24 23 23 22 20 19 18 16 14 14 14 14 16 15 15 15 14 14 14 13 11 9 7 6 6 7 7 6 6 7 7 7 9 9 8 6 5 4 4 3 3 3 5 5 3 5 8 7 4
3 6 6 5 8 5 3 7 8 2 2 3 6 2 1 3 5 6 4 2 2 2 3 7 8 8 10 10 10 11 12 12 12 11 12 16 19 21 23 24 24 25 25 26 27 27 27 27 26 25 24 22 20 19 18 17 15 14 15 15 16 14 13 15 16 15 14 14 13 10 8 7 8 9 7 6 5 5 6 8 8 9 8 6 3 4 4 3 3 3 5 5 4 6 8 8 7
3 6 8 8 11 7 9 12 9 3 1 3 6 3 2 5 8 8 4 2 3 2 2 9 9 6 7 9 8 9 11 13 13 13 13 16 20 21 22 23 24 25 26 28 28 28 27 28 27 26 25 23 21 20 20 19 17 15 16 16 17 16 15 16 18 17 16 16 14 11 8 8 10 10 7 6 5 4 6 7 7 7 6 4 2 3 2 2 2 3 4 5 5 6 7 7 7
2 6 9 8 10 9 13 15 8 3 3 4 5 4 2 4 8 9 5 5 6 3 3 8 9 7 8 9 8 7 11 12 12 13 14 16 19 20 21 23 25 25 26 27 27 27 28 28 28 27 27 25 23 23 22 21 18 15 16 18 18 18 17 18 18 16 15 15 13 11 8 8 11 9 7 6 4 3 5 5 5 5 4 2 2 2 1 1 1 3 4 5 5 6 5 6 6
4 6 9 10 11 11 14 12 5 2 2 2 2 1 2 3 6 9 7 6 6 5 6 6 7 8 8 10 9 8 11 13 12 12 13 15 19 21 22 25 26 27 27 27 27 27 28 29 29 28 27 25 24 24 23 21 20 17 17 18 19 18 17 16 16 15 14 13 13 12 10 10 13 11 8 7 5 4 4 3 3 3 2 1 1 1 2 2 1 3 4 5 6 6 6 6 6
3 2 7 9 9 9 9 5 2 2 4 2 4 2 1 3 3 5 8 8 8 9 10 8 7 8 8 10 10 9 12 14 14 14 14 17 21 23 25 27 27 26 27 28 28 28 29 29 28 27 26 24 24 25 23 21 20 19 18 19 19 17 16 14 14 15 15 13 13 12 11 12 14 11 9 8 7 6 7 6 4 3 3 3 1 2 3 3 1 2 3 4 5 6 6 6 6
4 13 13 10 10 9 7 5 4 3 2 2 7 6 2 2 3 4 6 9 11 10 10 8 8 8 8 9 10 9 10 12 14 15 16 20 24 26 26 26 26 26 27 29 28 27 28 29 28 27 26 25 26 25 22 21 21 20 19 19 19 17 16 15 15 16 16 13 13 12 11 13 14 11 9 9 8 7 8 9 7 5 4 4 2 2 3 2 0 1 2 3 4 5 6 7 7
10 14 12 11 8 6 6 4 5 3 3 3 6 9 2 2 3 5 8 10 11 9 8 8 8 7 7 7 8 9 10 11 12 13 17 22 25 26 25 24 24 25 26 27 26 27 28 28 28 27 26 27 27 25 22 22 22 22 21 19 19 19 17 17 17 18 17 15 13 13 13 13 14 12 11 10 9 7 7 9 9 7 6 5 3 2 3 3 2 1 1 1 2 3 4 6 6
10 7 7 8 5 4 5 3 3 1 4 3 2 6 3 2 4 6 9 10 11 11 10 11 11 9 8 6 7 9 9 11 12 12 14 17 19 20 21 22 23 23 24 25 26 27 27 28 28 27 27 28 28 25 22 22 22 22 22 21 22 21 19 19 19 19 18 16 14 14 14 14 14 13 12 11 10 8 7 9 9 8 7 5 3 2 2 2 3 2 1 1 0 1 2 4 4
7 7 6 6 3 3 3 1 1 2 4 1 1 4 3 5 6 5 8 9 11 13 12 12 13 11 9 6 6 7 9 11 12 12 12 12 14 17 20 21 22 23 25 26 26 27 27 27 28 27 27 28 27 25 23 22 22 21 20 22 24 23 20 20 19 18 17 16 14 14 13 14 14 13 12 11 9 7 7 7 8 8 6 4 3 2 2 3 3 3 3 3 2 2 1 2 2
6 8 6 5 3 2 2 3 2 2 3 1 3 5 3 4 5 5 8 10 10 11 11 11 12 13 11 7 5 6 8 12 12 12 12 12 14 19 21 22 23 24 26 27 27 27 27 27 27 28 28 28 27 26 25 23 22 20 20 23 25 23 22 21 19 18 18 16 15 14 13 12 13 12 10 9 7 7 7 6 7 7 5 5 4 4 5 5 5 5 5 5 3 3 2 1 0
4 3 3 5 6 4 4 4 3 2 1 1 5 5 4 2 3 4 5 7 8 9 9 10 10 11 11 8 5 5 8 11 12 13 13 14 19 22 23 24 25 25 26 27 27 28 28 27 28 28 28 28 27 26 26 25 23 22 21 23 24 24 23 21 20 19 18 18 17 16 15 13 13 12 11 10 8 7 7 7 8 8 6 6 5 6 8 7 7 7 8 7 4 3 4 3 3
1 3 2 3 5 5 3 2 3 4 3 2 4 3 3 3 3 3 2 4 7 8 8 10 11 11 11 10 7 5 6 9 12 13 13 16 22 24 24 25 26 26 27 27 27 29 29 28 29 30 29 29 28 27 27 26 24 23 22 22 23 23 23 22 22 20 18 18 18 17 17 16 14 13 13 12 10 8 8 8 10 9 7 7 7 8 9 8 7 8 9 8 6 5 5 5 5
3 2 4 5 3 6 5 1 2 4 3 1 2 3 4 2 3 3 1 4 7 8 8 10 12 12 13 13 10 7 6 9 12 13 13 16 21 24 25 26 26 26 27 27 29 30 31 30 30 30 29 29 28 28 28 27 25 25 24 23 22 22 23 23 23 22 20 19 18 17 18 18 16 14 14 14 12 10 10 10 11 10 9 8 8 9 9 9 8 8 8 8 7 7 7 6 5
7 4 6 3 2 4 5 2 2 3 1 1 2 3 4 2 2 2 1 5 7 9 10 10 10 12 14 14 14 10 7 9 11 13 14 16 20 23 25 27 28 29 29 30 31 31 31 32 32 31 30 30 30 29 28 27 27 26 26 25 23 22 22 22 22 22 21 20 19 18 19 19 17 16 15 15 15 13 12 12 12 12 12 11 10 10 10 10 11 10 8 8 8 8 8 7 6
7 5 4 4 2 1 2 2 2 2 1 2 2 3 3 4 4 3 6 8 8 9 10 11 11 13 13 14 15 12 9 8 10 12 12 14 19 23 25 26 27 30 31 31 31 31 31 30 31 32 32 32 31 29 28 27 27 27 27 26 24 22 22 22 22 22 23 22 21 20 20 20 18 17 16 17 17 16 14 15 14 14 14 14 13 12 11 11 12 12 10 9 9 9 9 8 8
4 2 0 1 2 4 3 2 3 3 2 1 2 2 3 5 5 7 10 10 9 10 10 10 13 14 13 13 13 12 9 9 10 10 9 9 15 22 26 28 28 29 30 30 30 30 30 30 30 31 31 30 29 28 27 27 27 27 27 27 25 22 22 22 22 23 23 22 22 22 21 21 19 17 16 17 19 18 16 16 15 15 16 15 14 13 11 11 13 13 11 10 10 9 9 10 9
5 2 0 1 1 2 3 1 2 3 3 2 1 2 5 5 3 7 10 9 10 11 11 10 10 11 11 11 11 10 9 9 9 9 8 8 10 14 19 24 28 30 29 29 29 30 29 29 29 30 29 28 29 29 27 27 27 27 26 27 26 23 22 22 22 23 23 23 22 22 22 22 21 19 16 16 18 18 17 17 15 15 16 15 13 12 11 11 13 14 12 10 10 11 10 10 9
5 4 3 4 2 3 3 0 1 2 4 3 4 2 6 5 2 4 6 7 8 10 10 9 8 10 9 7 8 9 9 9 8 9 8 8 11 13 13 15 19 25 28 27 28 28 28 29 29 29 29 29 29 29 28 27 27 26 26 26 26 24 23 22 22 22 22 22 21 20 20 21 19 16 13 12 13 15 16 16 16 16 16 15 14 12 12 12 12 13 13 12 11 12 12 10 9
Wind_Direction
151 145 151 165 185 225 191 190 97 336 77 87 47 23 255 202 209 135 144 145 129 190 182 120 141 153 134 116 134 117 72 134 162 147 198 184 145 146 152 156 159 156 154 151 147 145 148 151 147 143 128 116 114 112 112 109 105 107 111 112 111 111 115 121 122 119 120 124 125 125 126 126 124 122 122 122 118 114 109 105 106 106 109 113 113 112 110 108 105 105 105 105 102 100 99 98 97
153 149 150 150 209 275 263 219 82 17 74 88 4 212 265 312 356 143 158 159 147 142 120 120 118 101 106 111 126 104 52 11 91 131 100 138 136 143 155 157 158 155 156 153 149 148 148 142 134 138 126 118 118 118 116 111 109 109 112 114 112 109 111 116 120 119 120 125 126 125 126 126 126 124 122 121 120 118 112 107 109 111 112 114 114 113 112 110 107 107 105 104 103 102 100 98 98
157 163 166 160 243 225 273 30 89 83 97 111 161 252 284 20 60 131 143 132 117 116 110 112 94 67 105 103 94 89 69 3 69 101 110 140 137 150 159 158 159 157 158 153 149 150 147 136 131 135 128 130 134 130 122 114 113 111 113 114 112 111 114 117 119 120 121 125 128 127 124 125 126 125 123 122 124 122 117 113 114 115 115 113 112 111 111 111 110 110 107 105 103 102 101 100 100
156 181 216 230 328 257 26 52 112 108 111 126 146 257 1 37 103 116 115 107 112 114 110 107 77 353 86 102 91 72 97 44 81 113 132 157 154 156 160 160 160 161 159 153 151 152 146 141 141 139 136 142 143 137 132 122 120 122 118 113 111 113 118 119 121 124 122 124 127 124 121 127 131 128 125 126 128 126 121 117 115 116 115 112 110 110 110 112 113 112 110 108 105 102 101 101 101
152 197 236 216 344 338 76 73 87 85 121 155 131 302 344 33 103 110 100 88 98 103 109 116 91 48 78 90 115 91 112 111 118 123 130 157 157 155 158 160 161 162 159 152 154 153 146 149 153 147 144 147 143 140 135 125 125 126 121 116 117 119 122 120 123 127 124 124 124 120 126 136 135 131 128 127 130 128 123 120 118 118 117 114 112 111 109 110 112 111 111 108 106 103 100 99 99
159 141 188 202 247 173 76 72 77 66 172 162 122 296 304 144 76 103 95 68 53 69 86 93 108 106 81 49 50 89 125 123 131 133 136 149 156 155 156 159 161 160 157 155 156 151 142 148 154 150 151 150 147 145 138 133 136 131 125 126 126 127 129 126 128 130 127 127 124 122 135 141 135 133 132 130 132 128 122 121 121 120 118 115 113 111 111 109 109 108 106 105 104 101 100 99 98
168 183 21 98 32 87 71 72 85 56 284 152 148 254 293 29 18 111 105 85 66 62 74 90 119 105 79 87 65 72 110 119 132 144 147 147 153 154 154 156 157 158 157 157 154 145 140 148 153 150 153 153 150 148 143 142 143 134 131 134 132 131 133 134 135 134 132 132 125 126 141 143 134 137 136 132 133 125 118 121 125 123 119 115 111 112 113 111 108 106 102 102 103 100 100 100 99
159 266 21 74 33 34 76 61 64 41 291 290 193 223 277 20 15 122 114 107 100 80 93 111 123 94 56 79 78 100 104 118 138 144 145 145 152 151 152 154 154 157 157 156 150 146 146 152 154 151 155 155 150 142 139 140 137 134 135 136 135 135 137 139 141 139 138 135 128 133 146 145 139 141 139 133 132 123 119 123 127 125 120 116 114 114 114 112 108 106 105 105 103 100 100 99 99
158 320 45 80 69 39 63 43 47 340 322 324 298 256 231 75 21 116 112 99 105 109 109 127 120 98 90 79 90 119 102 126 138 139 143 145 151 149 153 157 158 157 155 153 148 151 152 156 156 153 157 156 152 138 135 135 131 136 138 136 136 140 142 143 145 143 142 137 130 137 146 144 143 143 138 135 132 125 123 122 125 125 123 121 118 118 116 114 110 109 109 107 106 105 103 99 101
357 122 105 77 78 49 42 32 41 336 317 312 311 312 21 79 20 84 107 107 115 116 104 88 83 109 121 94 91 117 122 136 135 136 144 147 150 151 156 161 162 157 153 151 149 154 154 160 161 158 159 156 158 146 141 136 132 138 138 137 137 140 143 146 145 143 144 138 134 140 144 141 143 144 140 135 128 124 126 122 125 127 125 124 122 120 118 115 111 110 110 108 108 110 108 105 108
357 339 69 67 57 60 85 45 38 9 322 327 327 328 16 113 86 76 102 110 112 110 110 91 90 112 110 90 74 125 135 139 137 140 146 149 152 155 157 161 164 156 152 153 152 156 156 163 163 164 163 162 164 150 142 139 139 139 139 139 140 143 142 147 147 142 145 143 140 142 143 139 140 146 143 130 122 125 128 119 122 127 125 124 122 119 117 117 115 112 110 108 110 112 110 112 118
11 329 44 78 69 79 140 103 61 37 326 333 326 332 17 72 87 114 117 118 120 117 130 117 117 124 105 92 105 128 138 144 144 146 149 153 154 157 158 160 162 155 153 155 156 158 160 163 159 164 165 164 159 147 142 137 135 133 137 140 141 143 139 146 149 145 147 146 143 141 142 142 141 146 146 131 125 133 133 122 122 124 123 122 119 117 118 120 119 115 112 110 112 115 114 118 125
156 301 57 80 138 115 101 53 66 80 314 309 295 325 13 29 89 130 122 123 133 130 146 139 136 128 100 107 124 136 146 153 150 148 153 154 154 156 156 156 157 156 155 157 159 159 160 160 157 163 165 161 153 146 143 135 129 128 133 135 136 139 137 144 147 148 150 148 146 143 144 146 144 145 146 140 138 140 133 128 128 125 125 123 119 119 121 123 122 120 116 113 116 118 118 122 125
181 245 89 81 61 92 81 70 63 91 267 274 296 328 345 38 96 119 118 124 125 136 126 126 132 111 109 130 136 157 157 156 153 151 154 153 154 154 150 151 154 155 155 159 161 159 160 162 163 166 165 161 154 145 139 135 128 128 129 129 135 135 135 141 146 153 155 151 148 144 145 149 146 142 143 142 142 138 129 128 129 129 130 124 123 122 121 122 124 125 124 122 123 119 119 124 125
169 31 93 98 31 59 74 118 118 119 257 259 348 344 336 21 83 65 124 127 85 133 121 120 131 108 145 162 160 171 157 155 154 151 150 148 150 148 145 149 154 155 155 161 163 164 166 166 168 170 170 164 157 146 135 130 127 128 130 133 140 137 139 145 151 160 157 149 143 142 145 148 144 137 138 142 142 131 127 131 129 135 138 129 128 126 121 122 124 128 131 134 131 123 123 129 131
144 68 65 80 33 157 207 142 137 135 233 223 77 3 334 337 72 89 245 148 124 146 122 139 163 127 159 164 150 152 148 152 152 148 145 141 142 140 144 149 152 154 157 166 169 171 171 171 173 174 173 167 163 151 136 130 132 134 133 138 143 143 147 152 159 164 153 143 140 143 146 145 142 135 134 139 136 126 130 133 131 140 140 133 133 127 122 124 127 131 134 143 142 131 130 130 130
92 84 35 62 190 207 191 160 165 159 191 184 120 77 193 304 333 289 277 131 135 146 105 133 132 118 139 133 136 141 143 148 147 144 138 136 138 137 142 148 149 154 165 173 175 178 177 175 176 175 170 163 158 149 140 136 136 136 138 141 145 149 151 151 158 158 148 140 139 142 144 143 143 138 135 136 132 132 136 132 133 145 141 134 132 125 122 124 128 134 140 149 151 144 142 133 126
113 164 192 201 196 207 189 172 175 160 159 177 166 163 186 189 190 280 91 120 129 123 111 113 97 100 114 121 133 138 142 145 144 142 139 139 140 140 144 149 154 162 172 175 180 185 182 178 179 176 163 154 151 148 144 139 136 136 139 139 141 150 150 149 153 151 145 139 135 138 142 143 144 141 137 135 134 136 136 134 142 149 140 132 128 125 125 130 133 139 144 149 155 156 157 147 136
170 160 172 224 206 205 195 156 130 151 160 173 184 169 178 161 146 257 134 143 138 120 121 114 106 109 115 123 134 140 143 144 147 147 144 144 145 145 147 155 161 167 175 178 183 186 186 182 183 179 164 156 154 149 144 140 140 138 136 136 140 148 150 151 150 144 142 138 137 143 145 142 142 138 132 129 127 131 136 144 150 144 137 136 136 137 137 140 142 146 149 150 158 164 165 159 150
185 139 196 242 216 230 228 138 128 173 169 164 190 174 162 138 91 323 145 147 147 139 139 131 128 133 133 134 139 144 147 148 152 151 148 148 149 152 154 163 168 171 179 182 181 182 187 185 181 178 169 166 162 150 145 146 150 145 137 136 141 147 148 151 149 142 141 142 144 146 143 138 134 130 130 131 133 144 153 156 153 144 144 144 143 143 142 142 145 151 154 154 159 167 172 173 172
172 147 206 257 230 259 269 136 141 173 175 161 172 165 159 139 78 77 145 145 154 161 157 148 144 144 144 143 145 150 155 156 157 156 152 151 154 158 162 170 173 175 181 185 183 182 185 185 179 175 170 171 167 152 145 146 150 147 140 138 140 145 145 147 148 144 142 144 145 143 141 139 137 139 146 152 154 159 161 159 153 147 144 140 140 141 140 142 147 154 158 161 167 175 183 189 195
139 159 170 341 301 250 265 166 154 171 173 150 153 159 156 121 101 120 161 165 171 169 160 151 147 147 148 147 149 153 158 161 161 162 160 159 159 159 164 170 171 174 180 186 188 187 187 184 178 172 170 174 168 151 142 141 147 148 144 143 143 144 147 147 147 147 144 144 145 144 145 144 144 149 157 160 160 162 159 156 149 142 140 138 138 138 138 141 148 156 163 170 179 187 194 200 208
145 175 55 40 1 279 252 241 178 171 158 150 157 154 118 99 115 137 176 190 169 150 149 148 147 145 147 149 152 154 159 166 166 169 168 165 162 161 165 168 171 174 180 189 190 188 187 182 176 172 172 173 165 152 144 143 146 148 147 148 147 146 150 150 149 150 147 145 147 148 148 148 150 153 158 160 160 159 157 156 148 143 142 138 136 135 136 140 147 158 167 180 196 208 216 225 236
118 121 48 63 26 42 51 28 132 152 143 145 145 115 119 130 129 129 188 195 141 137 142 142 144 145 148 151 155 155 160 168 171 174 173 170 169 167 167 169 173 175 180 190 189 187 185 183 181 175 172 169 166 157 148 146 145 144 146 150 151 150 151 151 152 153 150 149 151 151 149 149 153 156 161 163 158 156 157 156 150 148 144 138 138 138 142 149 160 176 190 203 222 241 252 265 274
96 115 115 98 44 61 67 65 89 102 103 118 117 99 130 134 100 102 238 163 134 136 141 142 144 148 152 155 157 156 162 171 173 175 174 174 171 168 167 168 171 175 181 189 187 185 184 185 184 177 171 168 166 159 150 148 149 147 146 150 152 151 152 152 154 155 152 152 154 153 150 147 149 153 157 159 157 155 156 155 151 146 142 141 145 148 156 165 182 198 212 229 258 280 279 285 285
129 113 101 105 81 81 71 80 95 87 95 119 111 89 36 143 102 49 238 153 136 139 144 146 148 151 156 157 159 160 166 174 174 175 174 171 168 167 169 168 171 176 183 187 186 185 183 183 181 176 172 172 168 163 158 154 153 149 146 151 153 152 155 156 157 158 155 153 154 152 149 146 145 146 147 152 156 156 155 153 149 144 144 149 154 160 170 180 196 208 228 263 299 302 291 290 284
115 107 94 97 99 93 59 80 107 97 84 117 129 132 183 199 117 92 192 150 139 142 145 150 150 153 158 159 163 167 172 178 177 172 164 163 166 168 170 169 171 176 183 186 188 186 184 183 181 177 176 175 171 167 166 160 155 150 147 151 154 156 159 159 160 161 160 153 150 149 148 146 142 143 144 147 151 153 155 154 152 152 158 166 170 179 187 193 203 217 259 296 311 307 295 287 281
119 119 93 69 71 77 51 50 111 104 64 10 135 145 156 177 146 192 169 148 141 142 146 153 152 154 159 160 165 172 178 179 177 168 158 164 170 170 171 171 170 174 181 186 188 186 186 187 185 182 180 176 171 169 169 162 157 155 154 156 156 162 162 159 160 161 160 152 146 146 145 142 141 145 144 143 147 152 157 161 167 177 185 187 192 198 202 205 214 244 285 307 318 315 301 284 268
127 132 97 67 34 44 21 359 73 104 108 285 169 131 145 163 175 184 163 146 144 143 148 154 154 157 160 164 169 176 180 176 177 174 166 169 171 171 172 174 172 172 180 185 185 184 187 190 189 188 185 181 173 170 170 163 160 160 159 157 156 163 163 159 158 157 153 147 143 144 147 147 147 149 146 144 151 160 167 176 190 198 197 199 204 208 212 220 244 274 306 325 335 332 317 303 283
104 53 91 96 49 3 340 10 23 96 112 232 191 154 184 171 162 167 157 147 147 145 152 155 156 162 165 171 174 178 177 174 181 180 172 170 171 172 172 174 174 172 176 181 182 183 186 187 189 191 189 187 179 174 174 168 165 165 160 155 154 160 162 159 157 153 148 145 145 149 155 158 155 155 153 153 160 170 180 192 200 200 199 202 208 215 222 238 272 301 330 340 348 350 334 319 301
89 41 44 79 120 258 324 8 358 100 77 349 100 142 184 159 157 159 153 151 150 150 156 157 158 167 171 176 177 178 177 180 186 181 173 172 172 172 172 174 175 173 174 178 182 183 181 183 187 188 188 188 183 180 180 175 172 169 165 162 157 159 161 160 157 155 153 152 154 156 161 162 163 164 166 177 188 194 203 201 200 199 199 204 211 217 224 245 280 317 341 345 348 350 343 327 304
75 93 3 349 118 233 336 13 26 68 17 13 62 123 157 145 162 160 154 154 151 154 161 162 164 173 177 180 180 179 177 183 185 178 173 174 173 172 173 174 175 173 174 178 182 180 179 183 185 185 184 185 183 183 184 184 181 173 170 170 165 163 163 161 159 160 161 162 163 163 161 164 175 187 209 242 236 232 220 206 209 207 202 206 211 214 214 233 282 311 339 345 343 341 346 340 311
1 88 169 208 131 174 359 19 30 51 16 25 62 97 346 149 168 161 157 156 152 159 164 166 171 178 180 182 183 176 169 176 177 174 174 175 175 174 174 176 175 174 175 178 180 180 181 183 184 184 182 182 182 182 185 188 187 177 171 171 169 168 167 165 165 168 171 172 172 170 171 186 206 216 245 252 237 233 216 202 208 206 204 205 204 203 199 222 291 301 320 342 342 338 342 343 304
289 49 131 189 139 143 111 328 336 58 70 35 49 88 333 301 173 162 163 158 157 165 167 172 177 180 184 184 180 170 167 172 167 172 175 175 176 175 175 176 175 174 174 177 180 181 182 183 184 182 180 182 182 181 183 186 187 180 172 169 169 169 169 169 171 177 182 184 180 177 187 206 218 238 253 246 227 215 198 192 194 195 199 198 190 183 181 202 315 321 328 337 337 332 334 338 255
184 175 137 154 132 129 153 208 225 100 91 66 44 110 3 333 153 145 167 165 166 169 170 177 178 179 185 183 177 168 173 175 168 174 176 174 173 172 175 176 173 173 173 177 180 180 183 185 184 182 181 182 182 181 181 183 186 183 178 173 172 172 170 170 175 181 187 189 185 187 199 204 218 238 241 238 220 195 182 186 187 186 187 180 172 161 146 115 42 347 344 337 335 336 332 329 202
182 183 132 147 145 131 174 192 217 142 103 100 119 126 77 344 354 38 360 234 185 176 171 177 178 179 184 181 176 172 176 176 171 174 173 170 170 171 174 174 172 172 173 176 178 180 183 183 183 182 181 180 180 182 182 183 187 187 184 182 181 180 176 174 174 178 184 188 190 194 196 196 213 223 223 221 200 183 179 183 180 177 172 164 154 136 114 85 38 6 360 339 336 352 347 308 183
163 130 100 142 140 125 136 140 190 162 106 123 145 119 106 290 276 303 3 333 228 190 176 180 178 176 182 179 174 176 177 172 170 172 171 167 167 169 171 172 171 171 174 176 177 180 181 180 181 181 180 180 181 184 184 185 187 187 186 187 187 184 181 178 176 177 180 185 188 188 182 189 221 222 206 195 181 178 179 174 170 169 165 156 139 114 90 64 38 12 1 339 338 23 39 61 177
165 137 134 144 129 116 96 127 187 181 122 173 143 123 132 181 234 262 338 333 231 201 182 182 180 177 181 173 170 176 167 154 161 164 165 163 162 166 168 170 172 173 174 177 179 180 180 180 182 181 180 182 184 186 187 188 188 187 186 186 185 182 181 181 178 179 181 181 181 179 175 179 205 193 182 177 172 175 175 166 162 164 160 148 132 109 76 51 40 12 358 347 1 56 57 63 155
174 141 141 158 151 122 88 129 177 209 176 167 163 159 161 179 237 263 271 224 234 227 197 185 178 177 180 171 170 169 149 146 155 158 162 162 162 165 167 170 176 176 175 176 179 181 182 183 183 183 182 183 184 187 191 193 190 189 187 183 179 178 181 183 180 179 181 183 180 176 173 164 158 161 162 166 167 168 169 163 157 160 158 144 132 104 69 56 43 12 3 10 43 80 73 64 114
154 146 151 173 179 161 128 156 160 231 301 155 160 173 152 130 276 274 256 228 238 277 230 192 179 181 181 175 172 162 152 155 157 160 164 163 164 166 166 171 176 176 175 175 178 181 183 185 185 184 185 185 186 190 196 198 197 195 193 188 184 182 183 184 185 184 185 187 184 180 175 163 155 156 155 154 157 161 163 161 156 159 158 145 127 89 72 70 48 18 15 26 62 92 85 74 85
185 182 178 171 180 176 106 141 141 75 347 131 127 99 324 186 213 245 249 242 250 293 237 190 182 189 184 177 172 160 156 158 158 164 167 165 167 169 169 171 174 176 176 177 179 180 182 184 185 186 188 189 190 192 195 199 198 198 201 200 196 194 191 188 191 192 191 190 188 188 181 170 164 163 165 161 154 156 156 154 157 158 154 145 115 73 78 75 42 28 30 42 77 90 87 81 79
232 213 210 186 174 151 110 134 141 119 252 208 154 149 263 206 202 222 218 192 234 291 211 187 177 183 186 180 178 165 159 160 162 166 170 171 170 169 170 172 175 177 177 178 179 180 181 184 186 188 190 191 192 193 195 197 197 197 202 202 197 196 194 192 195 194 192 190 188 188 183 174 170 171 178 177 158 150 156 154 156 155 152 144 97 68 80 76 47 54 50 55 80 84 85 83 73
236 222 210 182 160 140 134 148 152 151 200 219 186 171 195 205 211 217 201 186 213 254 248 200 176 174 185 186 181 167 163 163 163 167 170 174 171 167 170 175 177 178 179 179 178 179 182 183 186 188 190 191 191 193 195 197 198 199 201 201 200 201 199 198 199 197 193 190 186 185 185 181 179 179 187 190 175 164 170 163 153 152 146 125 93 75 88 93 78 83 71 66 77 81 84 80 68
240 223 180 164 157 150 150 153 151 134 108 127 203 158 116 205 222 206 189 192 210 226 239 219 185 177 183 190 184 167 169 165 163 170 172 174 173 171 174 178 181 180 178 178 178 180 182 183 185 188 189 192 193 194 195 196 200 200 196 196 198 203 206 206 205 203 198 194 190 187 189 188 184 180 182 190 193 196 200 186 163 159 140 133 150 197 199 183 147 109 88 73 75 82 87 80 69
247 123 123 134 135 131 131 124 86 79 86 141 215 214 141 236 246 181 174 198 212 213 221 218 196 187 183 189 187 171 171 169 165 171 175 176 177 178 179 180 181 179 178 179 180 182 183 184 186 189 192 193 192 192 193 197 201 200 197 197 198 202 209 211 209 208 204 203 202 198 193 187 182 179 181 190 202 212 216 210 201 201 190 186 199 212 200 193 165 119 99 80 77 82 81 75 69
110 94 89 86 91 90 87 71 38 39 45 206 205 198 196 263 249 163 170 206 214 207 210 211 198 193 186 186 185 173 170 173 171 172 176 178 180 183 182 180 180 179 179 180 181 182 183 185 187 191 193 191 189 191 196 200 203 202 200 204 206 206 208 209 208 208 208 211 214 210 198 187 183 184 187 194 206 215 215 209 204 201 199 198 200 219 216 222 231 121 100 86 85 84 79 71 69
102 96 92 79 70 64 62 55 49 39 291 266 206 197 193 311 233 192 193 205 204 196 199 201 195 193 191 186 183 174 166 173 175 173 177 180 182 183 181 179 179 179 180 180 180 182 183 185 188 191 193 191 191 195 201 205 206 204 205 211 215 212 211 211 209 207 209 213 216 209 198 191 189 190 193 200 211 221 217 206 204 205 208 210 221 244 233 239 246 178 119 91 95 91 85 76 74
110 101 110 90 52 32 42 23 46 116 243 285 227 192 177 274 244 214 216 206 192 193 196 195 191 188 190 189 185 176 164 170 176 174 178 178 178 180 179 179 179 177 179 179 180 183 184 186 188 191 194 194 195 200 205 206 207 209 213 218 218 215 216 216 213 212 213 214 214 206 197 194 196 196 200 206 214 225 220 205 206 208 210 217 228 252 235 230 230 219 248 277 184 132 108 92 84
115 120 118 94 53 39 69 272 265 208 232 264 165 173 188 252 249 227 225 211 196 200 198 192 189 184 184 188 187 179 163 167 176 175 176 175 174 177 178 178 178 178 180 180 181 183 185 188 189 191 194 196 199 203 205 205 206 211 216 216 213 212 214 215 214 217 221 222 218 211 206 202 201 204 208 213 220 232 227 212 210 210 214 226 235 253 256 249 232 235 271 279 252 226 175 127 101
147 142 131 118 112 102 148 213 257 252 257 248 149 167 202 268 262 226 216 208 200 202 197 188 186 184 182 182 183 181 167 167 175 176 174 176 177 178 178 179 180 181 182 182 182 184 186 188 191 193 195 198 202 204 205 205 206 209 211 210 208 208 210 211 213 220 225 227 224 222 222 215 212 217 222 224 231 242 240 224 213 215 227 238 244 259 263 261 254 254 269 270 252 232 228 231 185
172 133 108 146 155 156 172 193 196 184 242 102 136 167 198 220 245 233 220 210 191 191 193 183 183 186 179 173 175 182 174 169 174 177 177 178 179 179 179 180 182 183 183 183 184 185 187 190 192 194 195 199 203 205 205 206 207 207 207 206 206 208 210 211 213 220 226 226 226 229 229 225 225 228 232 237 240 244 246 231 215 217 233 240 246 258 260 261 261 260 260 258 252 250 252 256 263
175 63 72 195 184 152 137 159 160 138 120 128 156 207 232 204 244 274 257 213 186 183 186 177 180 184 175 175 182 183 183 176 174 178 179 179 180 180 180 182 183 184 184 183 184 186 188 190 193 195 197 199 203 205 206 208 209 208 206 205 208 209 212 214 215 220 227 226 225 227 227 226 228 230 231 233 234 237 240 227 215 219 233 243 247 251 254 257 257 255 256 257 258 268 274 269 262
113 121 211 228 182 125 110 72 39 80 105 178 194 249 296 285 272 288 201 185 185 182 181 179 182 180 176 182 185 183 187 183 179 179 180 179 179 181 182 183 183 184 184 185 186 188 189 191 193 194 197 199 202 205 207 209 210 210 209 208 210 212 214 216 217 221 226 226 225 228 227 227 229 230 229 226 226 230 233 224 218 222 231 240 243 244 248 252 251 250 255 258 263 272 277 277 268
128 190 213 200 55 82 99 94 23 48 129 239 202 231 281 269 253 295 184 187 189 186 185 184 182 180 182 187 184 182 184 185 186 181 179 179 178 181 183 184 184 185 186 187 188 190 192 193 194 194 196 199 202 205 207 210 211 211 211 210 210 215 218 218 220 223 225 225 226 228 227 228 230 232 231 227 227 230 230 225 224 227 232 235 238 242 247 249 249 250 254 257 260 266 270 272 273
143 189 181 127 104 103 105 124 136 141 215 262 253 254 255 220 215 203 194 198 192 188 187 184 185 184 187 187 181 178 174 178 187 182 179 180 179 181 183 184 186 187 188 189 189 190 192 194 195 195 197 200 202 204 206 209 211 210 211 212 213 218 220 221 224 225 224 224 225 226 227 228 229 233 235 231 229 232 230 227 232 235 235 235 237 242 247 247 245 246 250 253 256 259 262 266 271
131 148 120 119 139 154 166 168 153 148 164 230 286 305 252 232 216 182 189 199 188 184 189 189 191 189 188 186 179 172 168 174 180 175 173 175 179 184 184 183 186 188 189 189 188 189 191 193 195 196 198 200 201 204 206 207 209 210 212 213 215 219 220 222 225 224 223 224 225 227 229 229 229 233 238 233 230 232 231 231 238 238 233 233 237 241 245 243 238 239 243 247 251 252 254 262 266
132 118 299 256 80 128 162 169 138 127 133 177 207 295 263 249 205 174 183 192 186 183 187 192 194 190 188 183 173 166 164 166 168 165 162 154 159 177 187 188 187 187 188 189 188 190 192 193 194 195 197 198 200 202 205 207 208 210 212 212 215 219 220 222 224 224 224 226 227 230 232 233 232 234 239 237 233 234 235 237 239 234 228 230 236 239 242 238 231 233 238 242 247 249 252 260 265
143 164 196 185 156 127 127 187 279 117 120 166 162 217 267 268 225 180 173 183 193 187 184 187 187 183 181 169 161 161 156 156 156 153 160 156 143 151 174 189 190 187 186 188 190 190 191 192 194 196 196 197 200 201 203 206 207 209 211 212 215 218 220 222 223 223 225 226 228 231 233 233 233 236 241 244 245 243 245 244 237 230 228 230 236 240 239 237 232 232 237 242 247 250 252 260 269